Temp
60 60 60 60 59 59 59 59 60 60 60 61 61 61 61 61 60 61 57 66 68 70 70 76 77 78 78 72 75 74 54 55 60 64 69 79 75 84 87 83 87 88 87 88 93
59 59 59 59 59 59 59 59 59 59 60 60 61 60 60 60 55 55 69 71 71 71 73 72 71 75 68 70 70 65 53 58 70 73 72 77 79 81 80 80 82 86 88 92 94
59 59 59 59 59 59 59 59 59 59 60 60 60 60 60 59 54 63 72 71 71 71 73 74 73 71 63 68 69 65 60 68 71 75 77 76 78 83 80 76 79 79 85 87 90
58 59 59 59 59 58 58 58 59 59 59 59 59 60 60 56 51 68 73 72 72 72 72 71 69 60 58 59 67 62 70 71 72 76 76 73 78 77 79 79 86 87 86 86 85
58 58 58 58 58 58 58 58 58 58 58 59 59 60 57 55 60 75 73 73 73 73 68 67 63 61 58 64 67 65 68 73 76 77 77 78 74 75 77 84 88 89 87 83 84
58 58 58 58 58 58 58 57 57 57 58 58 59 60 55 52 78 79 74 76 74 71 74 71 64 68 60 61 60 66 69 70 73 73 75 74 75 77 79 85 85 86 83 85 84
58 57 57 57 57 58 58 57 57 57 58 60 61 62 58 58 78 79 78 71 77 78 71 73 72 65 63 58 65 64 57 64 69 71 70 72 68 71 80 83 81 83 85 84 83
58 57 57 56 57 57 58 57 57 58 59 62 63 59 54 77 75 76 76 77 80 78 76 76 74 63 59 62 61 56 55 47 58 68 72 69 58 71 78 79 78 80 83 84 84
57 56 57 56 57 57 57 56 57 59 61 63 58 55 57 74 75 79 75 75 77 78 76 82 69 60 61 52 46 50 43 49 56 66 67 65 62 72 77 76 75 78 80 82 83
57 56 56 56 56 56 56 56 58 60 64 68 68 57 66 69 75 78 79 78 73 71 69 67 59 52 50 46 36 45 47 54 54 60 63 59 62 70 73 76 76 74 78 79 81
57 56 56 56 56 55 54 58 54 52 56 58 63 64 72 77 79 76 79 74 72 65 54 61 50 45 52 56 58 56 54 52 58 64 59 57 59 64 68 69 70 76 76 75 78
56 56 56 56 55 55 50 52 64 63 52 68 69 71 76 75 66 74 79 65 62 52 58 53 46 58 63 61 58 55 51 50 57 62 60 57 56 62 66 66 68 71 74 76 76
55 55 56 55 54 53 57 66 72 68 50 64 71 69 70 72 65 67 73 66 59 54 54 48 55 65 61 57 55 53 50 50 51 58 60 55 51 56 64 67 70 72 75 74 76
55 55 55 54 52 61 66 72 71 68 41 57 63 68 71 69 62 76 76 66 58 52 55 52 60 60 56 54 56 47 58 57 55 49 40 54 38 50 58 60 65 69 71 73 71
55 55 55 54 52 57 68 70 67 60 31 61 64 74 70 63 66 68 75 67 55 56 54 50 54 53 52 54 57 49 56 54 53 48 41 46 39 48 54 55 60 65 69 73 74
55 55 54 59 54 63 71 70 62 41 34 56 65 62 60 65 66 69 67 69 66 57 57 55 63 56 53 57 57 58 51 50 49 42 34 44 42 43 49 54 60 65 69 72 75
54 54 52 62 57 70 68 60 40 34 62 54 56 60 58 58 61 63 59 54 48 43 42 52 54 56 58 49 53 50 39 27 27 28 31 47 43 46 52 58 60 60 65 69 74
53 52 58 65 68 67 59 47 34 51 52 60 58 58 53 59 58 59 55 50 58 52 41 36 34 52 58 49 45 45 42 31 24 26 33 46 35 44 58 61 63 65 66 67 72
52 58 59 64 68 62 50 34 40 51 57 54 55 52 53 59 57 55 51 52 56 53 40 38 40 56 58 58 56 45 38 47 36 40 29 36 44 52 56 55 53 52 55 55 59
49 55 60 68 66 56 44 44 52 60 59 56 46 52 44 49 49 48 49 56 54 56 52 45 36 51 55 56 55 49 52 34 32 23 24 34 38 40 45 45 48 48 49 54 56
50 51 63 68 63 50 38 46 55 62 61 53 49 47 48 47 48 46 48 55 57 55 53 46 38 41 48 44 43 38 38 36 35 32 26 25 33 46 44 45 44 47 52 52 53
51 47 65 66 46 49 47 54 56 60 61 58 54 51 48 49 46 46 47 52 59 55 45 46 38 32 40 49 49 46 40 38 30 29 32 29 34 49 48 48 47 47 52 53 55
47 53 64 61 40 41 51 55 59 58 55 54 51 54 52 45 40 47 48 58 57 52 46 44 34 28 33 39 44 41 43 43 38 35 30 29 34 56 50 49 49 47 49 51 53
49 45 53 54 52 46 46 49 51 61 59 58 54 55 49 45 47 43 47 55 58 55 56 49 37 32 27 34 40 38 43 47 38 31 34 37 41 45 44 47 47 46 49 49 51
51 47 50 40 43 47 48 50 50 51 57 55 49 51 48 40 43 42 47 49 54 55 49 42 33 38 41 44 45 44 45 46 43 41 34 41 37 43 43 47 49 48 49 51 54
45 45 48 44 49 48 49 48 50 52 50 48 45 50 47 41 42 41 44 42 41 48 42 43 34 38 35 43 45 42 47 47 47 48 45 44 42 49 51 54 52 52 53 57 62
52 52 46 44 45 43 44 47 50 51 54 55 50 47 44 47 52 50 49 48 47 43 41 40 37 32 29 42 40 34 41 43 44 47 44 36 41 48 47 50 52 54 58 59 61
MSLP
1019.85 1019.43 1019.02 1018.60 1018.24 1017.90 1017.55 1017.18 1016.77 1016.42 1016.10 1015.74 1015.41 1015.16 1014.80 1014.36 1013.86 1013.02 1012.24 1010.83 1010.53 1010.31 1010.27 1009.65 1009.27 1009.01 1009.02 1008.82 1008.97 1008.68 1008.74 1008.35 1007.33 1006.09 1004.32 1002.97 1002.32 1001.58 1000.65 1000.57 999.87 999.52 999.82 999.80 999.27
1019.84 1019.40 1018.95 1018.53 1018.14 1017.77 1017.36 1016.94 1016.52 1016.12 1015.75 1015.41 1015.14 1014.86 1014.56 1014.32 1013.71 1012.19 1010.63 1010.20 1010.04 1010.05 1009.89 1009.29 1008.96 1008.65 1008.87 1008.37 1008.75 1008.43 1007.62 1007.24 1006.48 1005.76 1004.49 1003.62 1002.60 1002.02 1001.68 1000.97 1000.23 999.94 1000.17 999.75 999.65
1019.73 1019.24 1018.75 1018.29 1017.88 1017.51 1017.14 1016.76 1016.36 1015.92 1015.49 1015.09 1014.79 1014.50 1014.29 1014.06 1012.90 1010.42 1009.82 1009.78 1009.86 1009.82 1009.66 1009.33 1008.96 1008.68 1008.57 1008.25 1008.04 1007.58 1006.87 1006.95 1006.09 1005.36 1004.64 1003.66 1003.08 1002.71 1001.86 1001.57 1001.09 1001.05 1000.69 1000.53 999.92
1019.69 1019.17 1018.68 1018.23 1017.79 1017.32 1016.89 1016.52 1016.10 1015.63 1015.22 1014.88 1014.57 1014.26 1013.75 1013.66 1011.95 1009.83 1009.59 1009.43 1009.42 1009.61 1009.76 1009.16 1008.87 1009.04 1008.69 1008.28 1007.60 1007.15 1006.55 1006.29 1005.63 1005.28 1004.39 1003.69 1003.34 1002.89 1002.52 1001.60 1001.00 1001.04 1000.86 1000.54 1000.91
1019.71 1019.18 1018.66 1018.13 1017.61 1017.12 1016.67 1016.23 1015.80 1015.33 1014.95 1014.67 1014.44 1014.13 1013.36 1012.45 1010.17 1009.15 1009.21 1009.15 1009.28 1009.54 1009.36 1008.87 1008.66 1008.74 1008.44 1007.97 1007.71 1006.90 1006.44 1005.76 1004.85 1004.48 1003.84 1003.53 1002.86 1002.80 1002.01 1001.93 1001.11 1000.85 1000.99 1000.97 1000.95
1019.55 1018.97 1018.41 1017.86 1017.30 1016.80 1016.34 1015.91 1015.49 1015.01 1014.68 1014.38 1014.23 1014.06 1013.47 1011.05 1007.97 1008.33 1008.60 1008.53 1008.59 1008.54 1008.37 1008.19 1008.23 1007.96 1007.85 1007.66 1007.69 1007.05 1006.28 1005.29 1004.60 1003.96 1003.48 1003.12 1002.76 1002.50 1001.63 1001.52 1001.37 1000.64 1000.83 1001.03 1001.31
1019.38 1018.82 1018.24 1017.65 1016.98 1016.39 1015.87 1015.45 1015.01 1014.64 1014.34 1014.04 1013.93 1013.75 1012.51 1009.94 1007.78 1007.73 1007.85 1007.93 1007.79 1008.01 1008.26 1008.13 1008.14 1008.46 1008.52 1008.50 1007.64 1007.20 1006.69 1005.51 1004.47 1003.98 1003.35 1003.47 1002.61 1001.60 1001.37 1001.19 1001.12 1000.97 1000.50 1000.69 1001.21
1019.28 1018.66 1018.00 1017.36 1016.68 1016.07 1015.45 1014.97 1014.53 1014.02 1013.86 1013.65 1013.58 1013.39 1011.21 1008.07 1007.73 1007.76 1007.63 1007.56 1007.31 1007.42 1007.69 1007.71 1007.97 1008.58 1008.84 1008.69 1008.34 1008.06 1007.27 1006.46 1004.87 1004.35 1003.43 1003.90 1002.41 1001.41 1001.51 1000.86 1000.57 1000.72 1000.72 1000.34 1000.43
1018.99 1018.38 1017.79 1017.05 1016.29 1015.65 1015.01 1014.52 1014.04 1013.54 1013.29 1013.26 1013.36 1012.78 1009.84 1007.92 1007.93 1007.70 1007.74 1007.61 1007.56 1007.53 1007.39 1007.29 1007.76 1008.52 1008.77 1008.81 1008.70 1008.05 1007.28 1006.20 1004.49 1004.84 1004.33 1003.88 1002.60 1001.27 1001.17 1001.03 1000.45 1000.11 1000.11 1000.16 999.55
1018.83 1018.08 1017.36 1016.59 1015.91 1015.30 1014.59 1013.57 1012.92 1013.20 1012.51 1012.56 1012.10 1011.89 1009.20 1007.88 1007.73 1007.72 1007.54 1007.55 1007.66 1007.59 1007.46 1007.36 1007.86 1008.42 1008.62 1008.93 1008.74 1008.17 1007.30 1006.27 1005.05 1004.88 1004.41 1004.20 1002.87 1001.47 1001.31 1000.80 1000.11 1000.02 999.62 999.63 999.56
1018.56 1017.77 1016.98 1016.14 1015.47 1015.06 1014.39 1012.86 1012.93 1013.11 1012.23 1010.93 1009.96 1009.23 1007.80 1007.57 1007.49 1007.39 1007.24 1007.53 1007.34 1007.63 1007.80 1007.43 1008.01 1008.37 1008.00 1007.70 1007.57 1007.49 1007.00 1006.36 1005.51 1005.23 1004.99 1004.45 1003.39 1001.69 1001.77 1001.21 1000.91 999.99 999.28 999.25 998.95
1018.26 1017.41 1016.56 1015.70 1015.02 1014.74 1014.81 1013.59 1011.67 1011.43 1010.58 1009.52 1008.76 1008.10 1007.64 1007.71 1007.73 1006.92 1006.98 1007.58 1007.77 1008.09 1007.99 1007.95 1007.64 1007.57 1007.25 1007.02 1007.11 1007.26 1007.06 1006.40 1005.80 1005.57 1005.19 1004.65 1003.66 1002.57 1002.15 1001.58 1001.06 1000.20 999.32 998.29 998.10
1018.05 1017.18 1016.35 1015.36 1014.63 1013.98 1013.41 1011.77 1010.80 1010.81 1010.78 1008.32 1007.48 1007.32 1007.31 1007.57 1007.33 1007.03 1007.18 1007.56 1007.91 1008.16 1008.23 1008.26 1007.74 1007.05 1006.97 1006.98 1007.03 1007.04 1007.11 1006.66 1006.26 1006.03 1005.38 1005.36 1004.45 1002.85 1001.48 1001.32 1000.68 999.80 999.10 998.33 997.37
1017.83 1016.92 1016.26 1015.36 1014.62 1013.22 1012.04 1011.07 1010.78 1011.05 1010.75 1008.17 1007.30 1006.82 1006.92 1007.10 1007.00 1006.62 1006.99 1007.81 1008.14 1008.32 1008.30 1008.15 1007.47 1007.18 1007.11 1007.26 1007.22 1007.00 1007.14 1006.70 1006.42 1006.26 1006.07 1005.90 1004.09 1004.16 1002.88 1001.29 1000.93 999.96 999.03 997.99 997.46
1017.52 1016.65 1015.80 1015.88 1015.02 1013.37 1011.46 1010.86 1010.89 1011.28 1010.09 1007.64 1006.96 1006.79 1006.61 1007.01 1006.61 1006.42 1006.73 1007.42 1007.91 1008.10 1008.42 1008.19 1007.55 1007.21 1007.32 1007.54 1007.80 1007.74 1007.90 1007.43 1007.13 1006.66 1006.39 1006.14 1005.85 1003.00 1003.69 1002.07 1001.01 999.85 999.19 998.12 997.03
1017.10 1016.36 1015.73 1014.05 1014.64 1012.59 1011.48 1011.10 1011.20 1011.56 1008.89 1007.33 1006.72 1006.60 1006.77 1006.50 1006.29 1006.22 1006.62 1006.87 1006.98 1007.56 1007.70 1007.60 1007.21 1007.41 1007.88 1008.03 1008.19 1008.26 1008.13 1007.65 1007.41 1007.35 1006.89 1006.51 1006.40 1003.99 1003.30 1002.17 1000.98 999.80 998.95 997.89 996.91
1016.51 1015.64 1015.66 1014.63 1013.38 1011.84 1011.59 1011.49 1011.57 1010.39 1007.77 1008.02 1007.40 1007.17 1007.07 1006.73 1006.35 1006.43 1006.75 1007.06 1007.23 1007.38 1007.84 1007.85 1007.70 1007.96 1007.85 1008.25 1008.23 1008.62 1009.05 1009.53 1009.12 1008.68 1007.62 1006.72 1005.95 1003.97 1002.66 1002.16 1001.46 1000.69 999.35 998.23 996.87
1016.03 1014.98 1014.03 1013.57 1012.70 1012.13 1012.15 1012.11 1011.35 1009.84 1009.13 1008.76 1008.39 1007.79 1007.27 1006.73 1006.72 1006.90 1007.06 1007.15 1006.88 1007.57 1008.31 1008.50 1008.38 1008.27 1008.24 1008.39 1008.40 1008.58 1009.48 1010.68 1009.88 1009.18 1008.10 1006.74 1005.56 1003.51 1002.74 1001.91 1001.57 1000.69 999.93 998.76 997.34
1015.77 1014.41 1013.89 1012.62 1012.41 1012.61 1013.00 1012.21 1011.17 1009.96 1009.74 1009.55 1008.99 1008.00 1007.47 1007.36 1007.89 1007.68 1007.56 1007.55 1007.63 1008.39 1009.40 1009.34 1009.09 1008.84 1008.35 1008.11 1008.49 1008.31 1008.77 1009.06 1009.63 1009.26 1008.58 1007.14 1005.32 1003.63 1003.25 1003.05 1003.10 1003.03 1001.65 1000.61 998.80
1016.39 1014.68 1013.13 1012.24 1012.35 1012.78 1013.06 1011.93 1010.59 1010.17 1010.17 1010.21 1009.88 1009.48 1009.38 1009.09 1008.93 1008.66 1008.53 1008.21 1008.54 1009.12 1009.72 1010.22 1009.42 1009.44 1008.76 1008.65 1008.16 1008.32 1008.62 1009.31 1010.24 1010.40 1009.43 1007.61 1006.02 1004.97 1004.77 1004.63 1004.22 1003.66 1002.73 1001.02 999.08
1016.24 1014.56 1012.67 1012.18 1012.48 1013.11 1013.03 1011.76 1010.94 1010.56 1010.38 1010.75 1010.70 1010.75 1010.63 1010.39 1010.17 1009.82 1009.61 1009.24 1009.35 1009.67 1010.12 1010.60 1010.92 1010.11 1009.90 1009.24 1009.22 1009.60 1010.18 1010.95 1011.77 1011.77 1010.29 1008.73 1006.86 1005.80 1005.85 1005.71 1005.28 1004.24 1003.23 1002.04 1000.10
1016.02 1014.22 1012.31 1012.05 1013.08 1012.91 1012.77 1011.88 1011.18 1010.49 1010.55 1010.53 1010.67 1010.96 1011.09 1010.92 1010.87 1010.59 1010.11 1009.99 1010.03 1010.34 1010.79 1011.28 1011.38 1010.96 1010.21 1009.37 1009.48 1010.00 1010.73 1010.87 1011.26 1010.94 1010.24 1009.13 1006.82 1006.18 1005.56 1005.21 1004.57 1004.22 1003.21 1001.84 1000.11
1017.23 1014.21 1012.30 1012.42 1013.28 1013.52 1012.92 1012.34 1011.10 1010.46 1010.62 1010.85 1011.13 1011.18 1011.38 1011.52 1011.46 1010.88 1010.65 1010.27 1010.37 1010.75 1011.05 1011.83 1011.99 1011.82 1010.53 1009.98 1009.29 1009.25 1009.23 1009.60 1009.98 1009.97 1009.57 1008.75 1006.71 1004.81 1004.92 1004.60 1004.23 1004.50 1003.25 1002.40 1000.60
1017.61 1015.11 1013.58 1013.30 1013.84 1014.10 1013.58 1012.77 1011.76 1010.75 1010.34 1010.77 1011.03 1011.14 1011.33 1011.40 1011.28 1011.12 1010.90 1010.64 1010.77 1010.69 1011.19 1011.76 1012.30 1012.56 1011.91 1010.58 1009.93 1008.92 1008.30 1008.33 1008.82 1009.01 1008.15 1007.32 1006.12 1006.34 1005.81 1005.37 1005.04 1004.68 1004.66 1002.51 999.96
1017.57 1016.71 1016.33 1015.44 1015.04 1014.87 1013.93 1012.99 1012.00 1011.07 1010.93 1011.11 1011.40 1011.62 1011.75 1011.65 1011.50 1011.24 1010.99 1010.58 1010.49 1010.60 1011.12 1011.75 1012.25 1012.21 1011.40 1010.21 1009.03 1008.13 1007.83 1007.31 1007.31 1007.18 1007.35 1006.91 1007.03 1006.14 1005.62 1005.06 1005.22 1004.54 1004.26 1002.92 1001.45
1018.71 1018.31 1017.56 1017.00 1015.78 1015.14 1014.12 1013.27 1012.41 1011.89 1011.91 1011.75 1012.06 1011.91 1011.96 1011.92 1011.62 1011.18 1010.99 1011.00 1010.74 1010.54 1010.94 1011.86 1012.31 1012.15 1011.15 1009.58 1008.25 1007.52 1007.00 1006.55 1006.35 1006.18 1006.24 1006.45 1005.77 1005.29 1005.26 1005.02 1004.43 1003.75 1002.73 1001.78 1000.05
1019.46 1019.01 1018.50 1017.48 1016.47 1015.63 1014.71 1014.26 1013.32 1012.65 1012.11 1012.05 1012.14 1012.17 1012.10 1011.74 1011.18 1010.88 1010.74 1010.40 1010.23 1010.46 1010.81 1011.62 1012.09 1012.15 1011.02 1009.57 1008.27 1007.32 1006.94 1006.75 1006.52 1006.54 1006.56 1006.03 1005.58 1005.02 1004.99 1004.59 1003.77 1003.43 1002.27 1000.91 999.24
Wind_Speed
17 17 17 17 17 17 17 17 17 16 16 16 16 16 16 17 17 8 7 2 3 6 8 8 7 9 9 6 5 4 3 11 15 14 13 15 9 8 7 6 11 7 4 3 6
17 17 17 18 18 18 18 17 18 18 17 17 17 16 14 15 9 10 5 5 5 4 5 6 8 7 5 5 5 7 5 12 12 14 15 12 16 15 8 9 12 13 2 7 6
18 18 19 19 19 19 18 18 18 18 18 18 17 16 14 10 6 1 10 8 8 4 6 7 11 9 6 6 11 6 14 12 16 19 17 16 15 15 5 10 11 7 15 2 6
19 19 19 20 20 20 19 19 19 19 19 18 18 17 16 4 4 4 12 11 9 3 6 6 7 6 4 8 7 15 18 17 18 21 23 22 16 17 14 9 15 13 12 9 11
19 19 20 20 21 20 19 19 19 20 19 18 17 15 9 4 7 9 13 12 6 6 10 9 6 6 9 8 14 19 17 17 16 20 21 21 21 17 20 11 15 15 14 11 12
21 21 21 22 22 21 20 19 18 19 19 18 14 11 4 5 6 13 11 11 11 3 7 7 5 9 5 6 7 7 14 15 16 18 15 18 20 19 21 15 13 16 12 12 8
22 22 23 23 23 23 21 19 18 18 18 16 10 5 6 13 2 4 8 5 4 3 4 8 8 8 10 9 8 10 10 15 16 13 18 7 15 24 21 18 19 13 16 14 10
22 23 24 25 24 24 23 21 20 21 17 11 5 5 7 4 4 7 5 8 5 6 6 7 6 4 4 7 7 7 7 6 3 8 14 9 24 24 11 17 21 18 15 18 16
23 21 24 26 26 24 22 21 22 21 16 8 4 5 7 1 3 4 4 5 5 7 7 8 4 4 6 5 6 5 8 11 17 9 11 9 20 24 17 15 14 18 17 17 19
24 23 24 25 25 22 20 24 15 9 8 7 8 5 7 4 5 5 9 2 6 6 8 8 5 5 4 3 5 7 9 11 15 5 8 11 18 19 12 20 21 13 18 18 18
25 24 24 24 23 17 11 6 1 0 4 8 8 7 11 6 3 5 5 4 7 5 5 6 3 5 12 10 8 8 13 14 15 13 15 13 15 21 14 15 16 21 17 16 19
27 26 26 25 22 14 3 4 8 5 8 12 16 13 6 2 5 6 1 2 5 6 9 7 6 8 9 9 7 8 14 16 14 10 14 12 20 20 18 17 18 20 19 18 19
26 26 26 26 23 5 5 5 6 7 3 9 8 5 5 6 6 8 2 3 6 6 8 6 10 12 13 12 13 8 8 12 15 12 15 10 16 24 25 18 17 20 19 13 18
26 26 25 25 6 4 4 6 6 6 2 7 6 2 4 6 6 4 4 3 3 5 6 6 9 12 9 13 14 12 12 17 16 9 10 6 17 11 18 25 21 20 19 17 9
26 25 25 10 7 7 5 6 5 4 2 7 7 5 3 4 6 5 9 5 8 10 5 10 12 7 7 10 10 13 18 20 20 13 5 7 8 16 10 20 23 20 20 22 15
27 25 21 2 3 10 9 8 2 1 2 4 7 5 5 5 9 1 5 7 10 10 10 12 12 4 3 6 9 14 11 18 12 3 10 12 11 18 16 17 21 23 22 24 22
28 27 12 6 5 7 7 5 1 1 4 8 6 9 8 12 4 3 2 6 6 4 5 8 9 3 4 2 6 6 7 5 6 3 9 11 12 15 13 14 19 20 23 20 23
31 27 5 6 9 7 5 3 2 9 11 11 11 12 13 9 2 2 8 7 3 6 3 3 6 10 3 4 6 4 4 5 6 6 12 9 7 13 15 15 17 21 21 19 21
27 3 3 5 6 5 3 2 3 6 10 11 12 9 9 8 4 8 8 5 7 12 5 6 5 13 15 15 14 7 7 11 7 11 3 6 11 12 15 14 21 21 23 26 26
6 3 1 1 4 2 1 5 3 11 9 8 6 11 12 13 10 8 8 8 7 11 7 4 15 6 13 14 10 5 8 7 5 6 7 6 13 7 14 18 22 23 26 29 22
2 2 4 3 3 2 1 4 7 13 6 5 9 9 10 8 10 10 6 12 12 9 8 6 2 8 10 4 9 8 5 3 4 3 3 6 3 2 9 7 13 18 23 25 25
4 1 4 3 1 3 4 9 9 8 8 8 2 4 6 10 7 9 8 8 7 8 5 5 3 6 16 16 12 7 8 3 2 3 5 5 8 7 8 6 10 16 23 22 21
6 3 3 3 2 4 6 13 14 3 2 5 6 7 7 6 6 5 9 10 8 6 5 2 4 6 7 2 0 1 5 7 5 4 5 8 7 7 7 10 10 10 18 21 26
4 4 4 3 3 5 7 9 13 12 8 4 4 7 8 6 2 4 8 9 6 8 6 1 4 7 8 13 12 17 19 15 7 4 7 12 19 15 7 8 11 17 18 21 25
2 4 3 5 5 11 7 8 12 10 9 10 7 11 12 7 7 7 9 11 13 8 4 4 6 9 14 19 20 20 18 18 17 14 8 7 13 9 2 2 3 6 13 17 24
4 4 5 8 9 8 11 6 10 10 9 7 9 9 12 9 7 13 9 4 6 6 3 5 5 6 13 19 17 19 17 15 14 10 6 11 10 11 4 2 7 9 15 21 25
4 5 2 6 6 6 5 11 14 11 7 6 9 12 9 14 13 9 10 10 11 13 13 7 4 1 7 12 18 9 4 6 7 9 10 11 6 11 12 11 10 12 15 17 16
Wind_Direction
345 342 340 337 335 332 330 326 323 321 318 317 317 318 320 319 314 294 235 229 255 308 303 270 258 260 267 215 247 318 219 242 244 251 277 303 327 313 277 325 326 311 31 146 40
344 340 338 337 334 331 328 326 322 317 316 316 316 320 323 321 293 259 204 200 260 297 295 305 306 249 219 230 214 205 209 234 254 258 265 277 307 310 349 327 313 320 66 115 92
339 337 335 334 332 330 327 323 317 314 314 315 318 322 317 318 282 108 188 221 241 252 275 275 277 287 275 246 226 218 239 256 262 274 287 294 305 315 305 299 285 303 328 267 162
339 336 334 331 328 325 322 319 316 313 313 315 318 321 310 260 27 160 194 226 239 254 278 260 241 251 246 251 269 256 241 237 245 255 274 277 286 290 288 255 279 296 305 321 293
337 334 331 327 325 322 319 317 314 311 312 313 316 321 332 236 243 169 201 229 239 220 225 236 248 246 234 237 239 255 267 268 258 246 242 263 267 272 274 273 267 283 298 309 324
338 335 331 327 323 320 317 314 310 308 310 309 311 313 242 275 138 170 199 224 214 182 329 321 327 306 305 301 291 289 286 277 270 265 264 248 255 259 260 270 270 272 281 292 290
336 333 330 328 323 320 316 311 308 306 308 309 305 275 267 250 298 233 222 235 283 149 294 325 357 10 343 327 300 325 322 306 277 280 274 310 279 243 245 251 255 268 274 280 281
335 333 330 327 321 317 312 309 306 303 306 310 288 266 259 225 334 290 352 300 268 197 218 238 204 266 258 267 298 298 278 279 270 280 282 259 271 272 282 238 237 241 250 270 269
333 332 330 325 321 316 311 305 296 289 290 282 243 212 271 156 235 23 308 306 333 277 271 266 122 217 290 271 311 260 269 275 286 254 277 262 266 262 261 265 250 232 230 240 265
333 327 324 327 323 319 313 291 276 308 246 241 251 273 269 265 60 299 260 341 298 278 276 227 205 194 263 194 233 248 260 266 267 276 257 263 269 275 277 250 254 249 229 230 240
331 327 326 324 324 326 333 340 23 154 236 240 264 233 297 45 341 266 97 281 270 252 294 320 1 254 241 241 254 290 299 295 303 325 326 301 291 294 305 298 304 261 236 223 227
331 329 329 328 325 323 287 259 22 277 308 278 260 254 298 77 279 287 166 249 329 294 304 320 231 249 312 322 322 317 306 301 303 297 288 307 299 294 297 290 292 291 279 230 217
331 329 330 328 323 297 229 325 289 27 294 300 214 215 222 172 251 268 87 318 317 333 326 323 294 321 320 316 313 280 270 290 285 288 281 302 287 296 294 286 285 285 280 274 226
331 328 330 328 320 290 252 345 5 48 299 173 174 175 174 211 237 163 180 82 298 298 313 291 291 299 342 327 321 305 315 311 299 282 273 224 277 261 291 294 293 294 295 276 263
329 328 326 320 299 307 327 354 42 53 47 176 122 157 226 218 262 117 142 175 250 270 279 259 283 281 273 298 355 310 333 304 300 284 314 282 281 286 299 290 292 288 286 289 263
327 327 331 343 204 253 320 330 7 330 281 136 149 191 222 263 295 141 181 203 235 242 239 246 252 53 68 6 319 315 337 308 287 271 265 276 252 273 271 274 271 277 281 285 289
328 324 319 299 261 330 342 318 9 212 213 40 355 354 334 285 276 208 238 277 253 292 353 350 335 118 93 356 284 341 8 337 330 320 267 280 280 270 273 293 295 297 295 301 288
328 319 238 237 287 330 342 334 308 308 29 360 349 305 266 255 18 238 247 266 310 55 5 272 331 318 40 223 235 274 196 205 251 266 279 295 257 275 278 283 285 280 296 281 278
319 306 268 240 259 33 30 11 233 24 15 350 322 314 359 63 336 344 344 326 31 43 35 348 311 325 323 323 322 279 263 261 287 284 288 250 266 275 347 10 350 345 341 335 335
315 288 306 82 68 15 46 273 351 40 15 343 323 15 347 337 341 353 352 2 17 37 66 314 306 289 318 328 305 243 286 327 5 316 290 291 287 290 9 354 348 344 339 325 321
227 268 195 244 99 354 254 310 5 349 349 351 337 319 329 313 350 334 328 309 23 356 357 9 26 304 314 288 326 6 357 43 180 243 245 274 283 94 50 16 335 330 328 323 325
316 312 218 146 48 277 1 325 336 317 336 312 226 276 295 324 325 316 294 349 357 19 6 20 264 292 298 288 137 163 234 242 218 213 262 231 265 122 123 67 21 323 327 322 308
315 265 271 83 40 337 307 350 315 354 14 318 292 336 338 316 305 318 328 320 29 1 6 22 310 317 307 122 219 203 240 239 236 240 237 282 270 238 68 24 21 4 323 322 315
299 349 353 343 14 1 344 313 324 303 269 278 272 282 289 255 279 259 288 298 325 289 352 228 214 216 255 268 273 280 285 281 179 227 275 270 307 12 40 1 36 12 315 318 303
323 356 16 305 330 310 282 285 296 328 13 9 343 325 302 304 317 295 283 303 289 292 180 176 245 257 275 283 286 286 291 298 299 240 250 318 279 353 131 277 91 311 288 284 297
18 1 345 295 279 290 279 320 333 322 348 318 294 345 347 319 294 312 311 317 272 270 228 145 266 306 293 285 266 268 270 258 281 332 352 315 314 3 40 278 274 262 276 282 282
5 342 286 279 299 331 339 332 309 315 312 311 310 312 305 288 297 295 289 274 252 269 266 205 199 16 262 310 304 290 60 4 320 341 335 297 330 340 334 318 315 318 311 312 332